Time,TemperatureF,DewpointF,PressureIn,WindDirection,WindDirectionDegrees,WindSpeedMPH,WindSpeedGustMPH,Humidity,HourlyPrecipIn,Conditions,Clouds,dailyrainin,SoftwareType,DateUTC
2013-05-15 00:03:00,56.1,47.4,28.02,ENE,71,0.0,0.0,73,0.00,,,0.00,WSDL version 423,2013-05-15 04:03:00,
2013-05-15 00:08:00,56.2,47.7,28.02,NE,53,0.0,0.0,73,0.00,,,0.00,WSDL version 423,2013-05-15 04:08:00,
2013-05-15 00:13:00,56.1,47.4,28.02,NE,42,0.0,0.0,73,0.00,,,0.00,WSDL version 423,2013-05-15 04:13:00,
2013-05-15 00:18:00,56.2,47.7,28.02,ESE,103,0.0,4.9,74,0.00,,,0.00,WSDL version 423,2013-05-15 04:18:00,
2013-05-15 00:23:00,56.6,48.3,28.02,ESE,103,0.8,4.9,73,0.00,,,0.00,WSDL version 423,2013-05-15 04:23:00,
2013-05-15 00:28:00,56.9,48.3,28.02,WSW,250,1.9,3.8,72,0.00,,,0.00,WSDL version 423,2013-05-15 04:28:00,
2013-05-15 00:33:00,57.8,48.7,28.02,South,177,0.2,3.8,71,0.00,,,0.00,WSDL version 423,2013-05-15 04:33:00,
2013-05-15 00:38:00,57.8,48.0,28.02,East,101,1.2,4.3,69,0.00,,,0.00,WSDL version 423,2013-05-15 04:38:00,
2013-05-15 00:43:00,58.1,48.1,28.02,NW,310,2.0,4.3,69,0.00,,,0.00,WSDL version 423,2013-05-15 04:43:00,
2013-05-15 00:48:00,58.6,48.4,28.02,South,173,2.1,5.4,68,0.00,,,0.00,WSDL version 423,2013-05-15 04:48:00,
2013-05-15 00:53:00,59.6,48.7,28.02,South,180,1.7,5.4,67,0.00,,,0.00,WSDL version 423,2013-05-15 04:53:00,
2013-05-15 00:58:00,60.4,48.7,28.02,SSW,213,1.9,4.0,65,0.00,,,0.00,WSDL version 423,2013-05-15 04:58:00,
2013-05-15 01:03:00,60.9,48.3,28.02,WSW,257,1.6,4.3,62,0.00,,,0.00,WSDL version 423,2013-05-15 05:03:00,
2013-05-15 01:08:00,60.3,47.2,28.02,ESE,123,1.9,4.7,62,0.00,,,0.00,WSDL version 423,2013-05-15 05:08:00,
2013-05-15 01:13:00,59.6,46.6,28.02,NE,51,1.1,4.7,62,0.00,,,0.00,WSDL version 423,2013-05-15 05:13:00,
2013-05-15 01:18:00,58.6,45.9,28.02,NE,56,2.4,3.4,63,0.00,,,0.00,WSDL version 423,2013-05-15 05:18:00,
2013-05-15 01:23:00,57.7,45.5,28.02,ENE,59,2.5,3.4,65,0.00,,,0.00,WSDL version 423,2013-05-15 05:23:00,
2013-05-15 01:28:00,57.3,45.6,28.02,NNE,26,1.6,3.8,65,0.00,,,0.00,WSDL version 423,2013-05-15 05:28:00,
2013-05-15 01:33:00,56.9,45.9,28.02,East,80,1.1,3.8,67,0.00,,,0.00,WSDL version 423,2013-05-15 05:33:00,
2013-05-15 01:38:00,56.6,46.3,28.02,NE,35,0.2,3.4,69,0.00,,,0.00,WSDL version 423,2013-05-15 05:38:00,
2013-05-15 01:43:00,56.3,46.4,28.02,NNW,345,1.1,3.4,70,0.00,,,0.00,WSDL version 423,2013-05-15 05:43:00,
2013-05-15 01:48:00,56.3,46.6,28.02,ENE,68,1.0,3.4,70,0.00,,,0.00,WSDL version 423,2013-05-15 05:48:00,
2013-05-15 01:53:00,56.1,46.6,28.02,ESE,122,1.0,2.2,71,0.00,,,0.00,WSDL version 423,2013-05-15 05:53:00,
2013-05-15 01:58:00,55.9,46.8,28.02,NE,42,1.3,2.7,71,0.00,,,0.00,WSDL version 423,2013-05-15 05:58:00,
2013-05-15 02:03:00,55.9,47.0,28.02,ENE,63,1.1,2.7,73,0.00,,,0.00,WSDL version 423,2013-05-15 06:03:00,
2013-05-15 02:08:00,55.9,47.3,28.02,NE,51,0.0,2.7,73,0.00,,,0.00,WSDL version 423,2013-05-15 06:08:00,
2013-05-15 02:13:00,55.8,47.1,28.02,NNE,17,1.3,2.9,73,0.00,,,0.00,WSDL version 423,2013-05-15 06:13:00,
2013-05-15 02:18:00,55.7,47.2,28.02,NE,37,0.7,2.9,73,0.00,,,0.00,WSDL version 423,2013-05-15 06:18:00,
2013-05-15 02:23:00,55.6,47.5,28.02,ENE,74,0.0,1.6,76,0.00,,,0.00,WSDL version 423,2013-05-15 06:23:00,
2013-05-15 02:28:00,55.7,47.9,28.02,North,3,0.0,0.0,75,0.00,,,0.00,WSDL version 423,2013-05-15 06:28:00,
2013-05-15 02:33:00,55.8,47.9,28.02,SE,127,0.0,0.0,75,0.00,,,0.00,WSDL version 423,2013-05-15 06:33:00,
2013-05-15 02:38:00,55.8,48.0,28.02,East,90,0.0,0.0,75,0.00,,,0.00,WSDL version 423,2013-05-15 06:38:00,
2013-05-15 02:43:00,55.9,48.1,28.02,ENE,68,0.0,0.0,75,0.00,,,0.00,WSDL version 423,2013-05-15 06:43:00,
2013-05-15 02:48:00,55.8,48.2,28.02,NE,51,0.0,0.0,75,0.00,,,0.00,WSDL version 423,2013-05-15 06:48:00,
2013-05-15 02:53:00,55.7,47.9,28.02,NE,43,0.0,0.0,75,0.00,,,0.00,WSDL version 423,2013-05-15 06:53:00,
2013-05-15 02:58:00,55.5,47.4,28.02,East,84,0.0,0.0,75,0.00,,,0.00,WSDL version 423,2013-05-15 06:58:00,
2013-05-15 03:03:00,55.2,47.9,28.02,ENE,70,0.0,0.0,77,0.00,,,0.00,WSDL version 423,2013-05-15 07:03:00,
2013-05-15 03:08:00,55.0,48.0,28.02,NE,55,0.0,0.0,77,0.00,,,0.00,WSDL version 423,2013-05-15 07:08:00,
2013-05-15 03:13:00,55.0,48.0,28.02,ESE,113,0.0,0.0,77,0.00,,,0.00,WSDL version 423,2013-05-15 07:13:00,
2013-05-15 03:18:00,55.0,47.9,28.02,East,90,0.0,0.0,77,0.00,,,0.00,WSDL version 423,2013-05-15 07:18:00,
2013-05-15 03:23:00,55.0,47.9,28.02,NE,48,0.0,0.0,77,0.00,,,0.00,WSDL version 423,2013-05-15 07:23:00,
2013-05-15 03:28:00,54.9,47.8,28.02,ESE,105,0.0,0.0,77,0.00,,,0.00,WSDL version 423,2013-05-15 07:28:00,
2013-05-15 03:33:00,54.8,48.0,28.02,NNE,20,0.0,0.0,78,0.00,,,0.00,WSDL version 423,2013-05-15 07:33:00,
2013-05-15 03:38:00,54.6,47.7,28.02,NE,38,0.0,0.0,77,0.00,,,0.00,WSDL version 423,2013-05-15 07:38:00,
2013-05-15 03:43:00,54.5,47.6,28.02,NNW,338,0.0,0.0,78,0.00,,,0.00,WSDL version 423,2013-05-15 07:43:00,
2013-05-15 03:48:00,54.4,47.5,28.05,SE,141,0.0,0.0,77,0.00,,,0.00,WSDL version 423,2013-05-15 07:48:00,
2013-05-15 03:53:00,54.1,47.1,28.05,SSE,158,0.0,0.0,77,0.00,,,0.00,WSDL version 423,2013-05-15 07:53:00,
2013-05-15 03:58:00,53.9,46.9,28.05,SE,146,0.0,0.0,77,0.00,,,0.00,WSDL version 423,2013-05-15 07:58:00,
2013-05-15 04:08:00,53.5,46.8,28.02,SE,135,0.0,0.0,78,0.00,,,0.00,WSDL version 423,2013-05-15 08:08:00,
2013-05-15 04:13:00,53.4,47.0,28.02,SE,135,0.0,0.0,78,0.00,,,0.00,WSDL version 423,2013-05-15 08:13:00,
2013-05-15 04:18:00,53.2,46.6,28.02,SW,214,0.0,0.0,78,0.00,,,0.00,WSDL version 423,2013-05-15 08:18:00,
2013-05-15 04:23:00,53.1,46.6,28.02,SSE,158,0.0,0.0,79,0.00,,,0.00,WSDL version 423,2013-05-15 08:23:00,
2013-05-15 04:28:00,53.0,46.8,28.02,SSE,158,0.0,0.0,79,0.00,,,0.00,WSDL version 423,2013-05-15 08:28:00,
2013-05-15 04:33:00,52.7,46.2,28.02,South,186,0.0,0.0,78,0.00,,,0.00,WSDL version 423,2013-05-15 08:33:00,
2013-05-15 04:38:00,52.5,45.9,28.02,SSE,158,0.0,0.0,79,0.00,,,0.00,WSDL version 423,2013-05-15 08:38:00,
2013-05-15 04:43:00,52.3,45.9,28.02,SSE,158,0.0,0.0,79,0.00,,,0.00,WSDL version 423,2013-05-15 08:43:00,
2013-05-15 04:48:00,52.0,45.8,28.02,North,355,0.0,0.0,79,0.00,,,0.00,WSDL version 423,2013-05-15 08:48:00,
2013-05-15 04:53:00,52.0,45.9,28.02,NW,315,0.0,0.0,80,0.00,,,0.00,WSDL version 423,2013-05-15 08:53:00,
2013-05-15 04:58:00,51.9,45.9,28.02,East,100,0.0,0.0,80,0.00,,,0.00,WSDL version 423,2013-05-15 08:58:00,
2013-05-15 05:03:00,51.9,46.0,28.02,ESE,113,0.0,0.0,81,0.00,,,0.00,WSDL version 423,2013-05-15 09:03:00,
2013-05-15 05:08:00,51.8,46.1,28.05,ESE,109,0.0,0.0,81,0.00,,,0.00,WSDL version 423,2013-05-15 09:08:00,
2013-05-15 05:13:00,51.6,46.0,28.05,East,98,0.0,0.0,81,0.00,,,0.00,WSDL version 423,2013-05-15 09:13:00,
2013-05-15 05:18:00,51.4,45.8,28.05,NNW,338,0.0,0.0,81,0.00,,,0.00,WSDL version 423,2013-05-15 09:18:00,
2013-05-15 05:23:00,51.3,45.7,28.05,North,10,0.0,0.0,81,0.00,,,0.00,WSDL version 423,2013-05-15 09:23:00,
2013-05-15 05:28:00,51.1,45.6,28.05,East,96,0.0,0.0,81,0.00,,,0.00,WSDL version 423,2013-05-15 09:28:00,
2013-05-15 05:33:00,51.2,45.8,28.05,NE,43,0.0,0.0,82,0.00,,,0.00,WSDL version 423,2013-05-15 09:33:00,
2013-05-15 05:38:00,51.2,46.0,28.05,SSE,158,0.0,0.0,82,0.00,,,0.00,WSDL version 423,2013-05-15 09:38:00,
2013-05-15 05:43:00,51.4,46.2,28.05,SSE,158,0.0,0.0,83,0.00,,,0.00,WSDL version 423,2013-05-15 09:43:00,
2013-05-15 05:48:00,51.4,46.6,28.05,SSE,158,0.0,0.0,83,0.00,,,0.00,WSDL version 423,2013-05-15 09:48:00,
2013-05-15 05:53:00,51.2,46.1,28.05,SSE,158,0.0,0.0,82,0.00,,,0.00,WSDL version 423,2013-05-15 09:53:00,
2013-05-15 05:58:00,50.8,45.6,28.05,NW,323,0.0,0.0,82,0.00,,,0.00,WSDL version 423,2013-05-15 09:58:00,
2013-05-15 06:03:00,50.5,45.5,28.05,ENE,68,0.0,0.0,83,0.00,,,0.00,WSDL version 423,2013-05-15 10:03:00,
2013-05-15 06:08:00,50.5,45.5,28.05,SE,128,0.0,0.0,83,0.00,,,0.00,WSDL version 423,2013-05-15 10:08:00,
2013-05-15 06:13:00,50.4,45.6,28.05,SW,225,0.0,0.0,83,0.00,,,0.00,WSDL version 423,2013-05-15 10:13:00,
2013-05-15 06:18:00,50.3,45.4,28.05,SW,217,0.0,0.0,83,0.00,,,0.00,WSDL version 423,2013-05-15 10:18:00,
2013-05-15 06:23:00,50.2,45.3,28.05,SSW,203,0.0,0.0,83,0.00,,,0.00,WSDL version 423,2013-05-15 10:23:00,
2013-05-15 06:28:00,50.2,45.3,28.05,SSW,203,0.0,0.0,83,0.00,,,0.00,WSDL version 423,2013-05-15 10:28:00,
2013-05-15 06:33:00,50.0,45.1,28.05,South,190,0.0,0.0,83,0.00,,,0.00,WSDL version 423,2013-05-15 10:33:00,
2013-05-15 06:38:00,49.7,44.7,28.05,SE,125,0.0,0.0,82,0.00,,,0.00,WSDL version 423,2013-05-15 10:38:00,
2013-05-15 06:43:00,49.7,44.9,28.05,SE,135,0.0,0.0,83,0.00,,,0.00,WSDL version 423,2013-05-15 10:43:00,
2013-05-15 06:48:00,49.7,44.9,28.05,ESE,120,0.0,0.0,83,0.00,,,0.00,WSDL version 423,2013-05-15 10:48:00,
2013-05-15 06:53:00,49.8,44.9,28.05,NNW,338,0.0,0.0,83,0.00,,,0.00,WSDL version 423,2013-05-15 10:53:00,
2013-05-15 06:58:00,49.8,44.9,28.05,NW,315,0.0,0.0,83,0.00,,,0.00,WSDL version 423,2013-05-15 10:58:00,
2013-05-15 07:03:00,49.8,45.0,28.05,South,180,0.0,0.0,83,0.00,,,0.00,WSDL version 423,2013-05-15 11:03:00,
2013-05-15 07:08:00,49.6,44.8,28.05,South,180,0.0,0.0,83,0.00,,,0.00,WSDL version 423,2013-05-15 11:08:00,
2013-05-15 07:13:00,49.6,44.7,28.05,South,169,0.0,0.0,83,0.00,,,0.00,WSDL version 423,2013-05-15 11:13:00,
2013-05-15 07:18:00,49.6,45.1,28.08,SSE,158,0.0,0.0,84,0.00,,,0.00,WSDL version 423,2013-05-15 11:18:00,
2013-05-15 07:23:00,49.6,45.0,28.08,SSE,165,0.0,0.0,83,0.00,,,0.00,WSDL version 423,2013-05-15 11:23:00,
2013-05-15 07:28:00,49.6,45.0,28.08,West,270,0.0,0.0,84,0.00,,,0.00,WSDL version 423,2013-05-15 11:28:00,
2013-05-15 07:33:00,49.6,45.1,28.08,West,270,0.0,0.0,84,0.00,,,0.00,WSDL version 423,2013-05-15 11:33:00,
2013-05-15 07:40:00,49.8,45.3,28.05,West,270,0.0,0.0,84,0.00,,,0.00,WSDL version 423,2013-05-15 11:40:00,
2013-05-15 07:45:00,50.0,45.5,28.05,West,270,0.0,0.0,84,0.00,,,0.00,WSDL version 423,2013-05-15 11:45:00,
2013-05-15 07:55:00,50.3,46.1,28.08,West,270,0.0,0.0,86,0.00,,,0.00,WSDL version 423,2013-05-15 11:55:00,
2013-05-15 08:04:00,50.8,46.6,28.08,West,270,0.0,0.0,86,0.00,,,0.00,WSDL version 423,2013-05-15 12:04:00,
2013-05-15 08:09:00,51.1,46.9,28.08,WSW,245,0.0,0.0,86,0.00,,,0.00,WSDL version 423,2013-05-15 12:09:00,
2013-05-15 08:16:00,51.6,47.5,28.08,SE,135,0.0,0.0,86,0.00,,,0.00,WSDL version 423,2013-05-15 12:16:00,
2013-05-15 08:23:00,52.1,47.9,28.08,SE,135,0.0,0.0,86,0.00,,,0.00,WSDL version 423,2013-05-15 12:23:00,
2013-05-15 08:30:00,52.7,48.8,28.08,East,100,0.0,0.0,87,0.00,,,0.00,WSDL version 423,2013-05-15 12:30:00,
2013-05-15 08:35:00,53.2,49.5,28.08,SE,128,0.0,0.0,88,0.00,,,0.00,WSDL version 423,2013-05-15 12:35:00,
2013-05-15 08:43:00,54.3,50.7,28.08,SE,129,0.0,0.0,88,0.00,,,0.00,WSDL version 423,2013-05-15 12:43:00,
2013-05-15 08:50:00,55.1,51.9,28.08,ESE,110,0.0,0.0,89,0.00,,,0.00,WSDL version 423,2013-05-15 12:50:00,
2013-05-15 08:55:00,55.9,52.7,28.08,ESE,108,0.0,0.0,89,0.00,,,0.00,WSDL version 423,2013-05-15 12:55:00,
2013-05-15 09:00:00,56.6,53.5,28.08,NE,37,0.0,0.0,89,0.00,,,0.00,WSDL version 423,2013-05-15 13:00:00,
2013-05-15 09:05:00,57.3,53.9,28.08,ESE,105,0.0,0.0,88,0.00,,,0.00,WSDL version 423,2013-05-15 13:05:00,
2013-05-15 09:10:00,58.0,54.2,28.08,ENE,71,0.0,0.0,87,0.00,,,0.00,WSDL version 423,2013-05-15 13:10:00,
2013-05-15 09:15:00,58.9,54.2,28.08,SE,125,0.0,1.6,82,0.00,,,0.00,WSDL version 423,2013-05-15 13:15:00,
2013-05-15 09:24:00,61.5,52.2,28.08,North,360,1.9,3.6,70,0.00,,,0.00,WSDL version 423,2013-05-15 13:24:00,
2013-05-15 09:29:00,62.8,51.9,28.08,NE,53,2.0,3.6,65,0.00,,,0.00,WSDL version 423,2013-05-15 13:29:00,
2013-05-15 09:34:00,63.7,51.0,28.08,NNW,340,1.2,3.4,61,0.00,,,0.00,WSDL version 423,2013-05-15 13:34:00,
2013-05-15 09:39:00,64.9,48.0,28.08,North,358,3.2,7.4,53,0.00,,,0.00,WSDL version 423,2013-05-15 13:39:00,
2013-05-15 09:44:00,65.8,48.2,28.08,WNW,283,2.5,7.4,54,0.00,,,0.00,WSDL version 423,2013-05-15 13:44:00,
2013-05-15 09:49:00,66.3,47.7,28.08,WSW,255,2.5,5.8,50,0.00,,,0.00,WSDL version 423,2013-05-15 13:49:00,
2013-05-15 09:54:00,66.7,47.6,28.08,SSE,158,1.2,5.8,51,0.00,,,0.00,WSDL version 423,2013-05-15 13:54:00,
2013-05-15 09:59:00,67.0,48.0,28.08,South,177,1.3,3.4,49,0.00,,,0.00,WSDL version 423,2013-05-15 13:59:00,
2013-05-15 10:06:00,67.6,47.0,28.08,NW,308,1.7,5.4,48,0.00,,,0.00,WSDL version 423,2013-05-15 14:06:00,
2013-05-15 10:11:00,67.8,47.4,28.08,West,276,2.8,5.4,48,0.00,,,0.00,WSDL version 423,2013-05-15 14:11:00,
2013-05-15 10:18:00,68.4,46.8,28.08,NNE,31,2.7,7.2,47,0.00,,,0.00,WSDL version 423,2013-05-15 14:18:00,
2013-05-15 10:23:00,68.7,47.2,28.08,West,264,2.8,7.2,46,0.00,,,0.00,WSDL version 423,2013-05-15 14:23:00,
2013-05-15 10:28:00,69.1,47.2,28.08,West,259,1.7,4.7,46,0.00,,,0.00,WSDL version 423,2013-05-15 14:28:00,
2013-05-15 10:33:00,69.4,47.2,28.08,North,350,1.7,4.9,45,0.00,,,0.00,WSDL version 423,2013-05-15 14:33:00,
2013-05-15 10:38:00,69.6,47.3,28.08,NNE,29,1.5,4.9,44,0.00,,,0.00,WSDL version 423,2013-05-15 14:38:00,
2013-05-15 10:43:00,70.1,46.9,28.08,NW,326,0.4,4.0,44,0.00,,,0.00,WSDL version 423,2013-05-15 14:43:00,
2013-05-15 10:48:00,70.4,46.8,28.08,NW,305,1.3,4.0,42,0.00,,,0.00,WSDL version 423,2013-05-15 14:48:00,
2013-05-15 10:53:00,70.9,46.9,28.08,NNW,346,2.4,3.6,42,0.00,,,0.00,WSDL version 423,2013-05-15 14:53:00,
2013-05-15 10:58:00,71.7,46.8,28.08,WNW,300,1.8,3.6,40,0.00,,,0.00,WSDL version 423,2013-05-15 14:58:00,
2013-05-15 11:03:00,72.3,46.2,28.08,WNW,301,2.2,3.6,39,0.00,,,0.00,WSDL version 423,2013-05-15 15:03:00,
2013-05-15 11:08:00,73.0,47.0,28.08,South,177,1.2,3.6,40,0.00,,,0.00,WSDL version 423,2013-05-15 15:08:00,
2013-05-15 11:13:00,74.2,47.3,28.08,NNW,341,1.2,2.9,39,0.00,,,0.00,WSDL version 423,2013-05-15 15:13:00,
2013-05-15 11:18:00,75.6,48.1,28.08,North,355,1.4,2.9,36,0.00,,,0.00,WSDL version 423,2013-05-15 15:18:00,
2013-05-15 11:23:00,76.7,46.9,28.08,West,275,2.2,4.7,34,0.00,,,0.00,WSDL version 423,2013-05-15 15:23:00,
2013-05-15 11:28:00,77.7,47.4,28.08,NNE,29,1.6,4.7,34,0.00,,,0.00,WSDL version 423,2013-05-15 15:28:00,
2013-05-15 11:33:00,78.4,47.6,28.08,WNW,293,1.4,3.4,34,0.00,,,0.00,WSDL version 423,2013-05-15 15:33:00,
2013-05-15 11:38:00,79.0,47.4,28.05,North,360,2.3,3.8,33,0.00,,,0.00,WSDL version 423,2013-05-15 15:38:00,
2013-05-15 11:43:00,79.2,47.6,28.05,NW,313,2.2,4.0,33,0.00,,,0.00,WSDL version 423,2013-05-15 15:43:00,
2013-05-15 11:48:00,80.0,48.0,28.05,NNE,14,2.3,4.0,32,0.00,,,0.00,WSDL version 423,2013-05-15 15:48:00,
2013-05-15 11:54:00,80.5,48.0,28.05,NW,315,2.3,4.3,32,0.00,,,0.00,WSDL version 423,2013-05-15 15:54:00,
2013-05-15 11:59:00,80.4,47.6,28.05,NW,323,1.9,3.6,32,0.00,,,0.00,WSDL version 423,2013-05-15 15:59:00,
2013-05-15 12:04:00,80.4,47.4,28.05,WSW,242,2.5,5.4,31,0.00,,,0.00,WSDL version 423,2013-05-15 16:04:00,
2013-05-15 12:09:00,81.3,47.8,28.05,NNW,338,1.4,5.4,31,0.00,,,0.00,WSDL version 423,2013-05-15 16:09:00,
2013-05-15 12:14:00,82.2,48.6,28.05,West,280,0.6,4.3,31,0.00,,,0.00,WSDL version 423,2013-05-15 16:14:00,
2013-05-15 12:19:00,82.6,48.3,28.05,SSW,208,1.6,3.8,30,0.00,,,0.00,WSDL version 423,2013-05-15 16:19:00,
2013-05-15 12:24:00,82.5,47.8,28.05,WNW,298,2.2,3.6,30,0.00,,,0.00,WSDL version 423,2013-05-15 16:24:00,
2013-05-15 12:29:00,81.7,47.3,28.05,North,360,2.2,3.6,30,0.00,,,0.00,WSDL version 423,2013-05-15 16:29:00,
2013-05-15 12:36:00,81.2,46.8,28.05,North,355,1.9,4.3,30,0.00,,,0.00,WSDL version 423,2013-05-15 16:36:00,
2013-05-15 12:41:00,80.8,46.3,28.05,West,281,2.5,4.3,30,0.00,,,0.00,WSDL version 423,2013-05-15 16:41:00,
2013-05-15 12:46:00,80.4,46.2,28.05,WNW,303,1.4,4.3,30,0.00,,,0.00,WSDL version 423,2013-05-15 16:46:00,
2013-05-15 12:56:00,81.2,46.9,28.02,NNE,31,1.8,3.4,30,0.00,,,0.00,WSDL version 423,2013-05-15 16:56:00,
2013-05-15 13:01:00,81.2,46.7,28.02,NW,310,2.1,3.4,30,0.00,,,0.00,WSDL version 423,2013-05-15 17:01:00,
2013-05-15 13:06:00,80.4,45.8,28.02,NW,309,2.1,3.8,30,0.00,,,0.00,WSDL version 423,2013-05-15 17:06:00,
2013-05-15 13:11:00,80.3,46.1,28.02,NW,323,1.7,3.8,30,0.00,,,0.00,WSDL version 423,2013-05-15 17:11:00,
2013-05-15 13:16:00,80.4,46.2,28.02,NE,56,1.5,2.7,30,0.00,,,0.00,WSDL version 423,2013-05-15 17:16:00,
2013-05-15 13:23:00,80.8,45.6,28.02,West,265,2.5,5.4,29,0.00,,,0.00,WSDL version 423,2013-05-15 17:23:00,
2013-05-15 13:28:00,80.9,46.5,28.02,NW,321,0.8,5.4,29,0.00,,,0.00,WSDL version 423,2013-05-15 17:28:00,
2013-05-15 13:33:00,81.2,46.1,28.02,ENE,68,1.7,3.6,29,0.00,,,0.00,WSDL version 423,2013-05-15 17:33:00,
2013-05-15 13:38:00,81.5,46.9,28.02,WNW,301,2.3,3.6,30,0.00,,,0.00,WSDL version 423,2013-05-15 17:38:00,
2013-05-15 13:43:00,81.3,46.6,28.02,WSW,258,1.5,3.4,30,0.00,,,0.00,WSDL version 423,2013-05-15 17:43:00,
2013-05-15 13:50:00,81.2,46.9,28.02,ENE,68,1.1,3.1,30,0.00,,,0.00,WSDL version 423,2013-05-15 17:50:00,
2013-05-15 13:55:00,81.4,46.9,28.02,WNW,303,1.6,3.1,30,0.00,,,0.00,WSDL version 423,2013-05-15 17:55:00,
2013-05-15 14:00:00,81.5,47.1,28.02,WSW,245,1.7,3.1,30,0.00,,,0.00,WSDL version 423,2013-05-15 18:00:00,
2013-05-15 14:05:00,81.5,46.7,28.02,West,278,2.0,3.1,30,0.00,,,0.00,WSDL version 423,2013-05-15 18:05:00,
2013-05-15 14:10:00,81.5,46.2,28.02,ESE,118,2.0,3.6,29,0.00,,,0.00,WSDL version 423,2013-05-15 18:10:00,
2013-05-15 14:15:00,81.8,46.0,28.02,ESE,122,3.0,5.4,29,0.00,,,0.00,WSDL version 423,2013-05-15 18:15:00,
2013-05-15 14:20:00,82.2,45.3,28.02,WNW,298,1.4,5.4,27,0.00,,,0.00,WSDL version 423,2013-05-15 18:20:00,
2013-05-15 14:25:00,82.2,46.1,28.02,WNW,287,2.4,4.0,29,0.00,,,0.00,WSDL version 423,2013-05-15 18:25:00,
2013-05-15 14:30:00,82.4,45.9,28.02,WSW,243,1.9,4.0,28,0.00,,,0.00,WSDL version 423,2013-05-15 18:30:00,
2013-05-15 14:35:00,82.6,46.2,27.99,WNW,293,1.6,2.5,28,0.00,,,0.00,WSDL version 423,2013-05-15 18:35:00,
2013-05-15 14:40:00,82.6,44.9,27.99,NE,42,2.1,3.8,26,0.00,,,0.00,WSDL version 423,2013-05-15 18:40:00,
2013-05-15 14:45:00,82.3,44.4,27.99,WNW,283,1.8,3.8,26,0.00,,,0.00,WSDL version 423,2013-05-15 18:45:00,
2013-05-15 14:50:00,82.4,44.1,27.99,ENE,68,2.2,6.3,26,0.00,,,0.00,WSDL version 423,2013-05-15 18:50:00,
2013-05-15 14:55:00,82.5,44.2,27.99,WNW,298,2.8,6.3,25,0.00,,,0.00,WSDL version 423,2013-05-15 18:55:00,
2013-05-15 15:02:00,82.4,42.7,27.99,NW,310,2.1,4.9,25,0.00,,,0.00,WSDL version 423,2013-05-15 19:02:00,
2013-05-15 15:07:00,82.6,42.3,27.99,WSW,248,2.1,4.3,24,0.00,,,0.00,WSDL version 423,2013-05-15 19:07:00,
2013-05-15 15:12:00,82.8,42.8,27.99,WNW,293,2.3,4.0,24,0.00,,,0.00,WSDL version 423,2013-05-15 19:12:00,
2013-05-15 15:17:00,82.8,43.2,27.99,NE,37,1.8,3.6,25,0.00,,,0.00,WSDL version 423,2013-05-15 19:17:00,
2013-05-15 15:22:00,83.1,44.5,27.96,West,276,1.6,3.4,26,0.00,,,0.00,WSDL version 423,2013-05-15 19:22:00,
2013-05-15 15:27:00,83.1,44.1,27.96,WNW,284,1.4,2.7,25,0.00,,,0.00,WSDL version 423,2013-05-15 19:27:00,
2013-05-15 15:36:00,82.9,43.1,27.96,NW,307,1.8,4.0,25,0.00,,,0.00,WSDL version 423,2013-05-15 19:36:00,
2013-05-15 15:41:00,82.9,43.0,27.96,WNW,295,2.5,3.8,25,0.00,,,0.00,WSDL version 423,2013-05-15 19:41:00,
2013-05-15 15:46:00,83.3,44.0,27.96,West,280,2.0,3.8,26,0.00,,,0.00,WSDL version 423,2013-05-15 19:46:00,
2013-05-15 15:54:00,83.5,44.9,27.96,NW,325,2.3,4.3,26,0.00,,,0.00,WSDL version 423,2013-05-15 19:54:00,
2013-05-15 15:59:00,83.3,44.3,27.96,NW,321,2.6,6.0,25,0.00,,,0.00,WSDL version 423,2013-05-15 19:59:00,
2013-05-15 16:04:00,83.4,44.9,27.96,WNW,296,1.9,6.0,26,0.00,,,0.00,WSDL version 423,2013-05-15 20:04:00,
2013-05-15 16:09:00,83.3,45.2,27.96,WNW,290,2.5,6.3,27,0.00,,,0.00,WSDL version 423,2013-05-15 20:09:00,
2013-05-15 16:14:00,84.2,46.5,27.96,WNW,293,2.2,6.3,26,0.00,,,0.00,WSDL version 423,2013-05-15 20:14:00,
2013-05-15 16:19:00,85.3,45.7,27.96,NNW,335,3.3,6.0,25,0.00,,,0.00,WSDL version 423,2013-05-15 20:19:00,
2013-05-15 16:24:00,85.8,45.7,27.96,SW,219,2.1,6.0,24,0.00,,,0.00,WSDL version 423,2013-05-15 20:24:00,
2013-05-15 16:31:00,86.5,45.5,27.96,WNW,293,2.3,3.4,24,0.00,,,0.00,WSDL version 423,2013-05-15 20:31:00,
2013-05-15 16:36:00,86.5,45.3,27.94,SW,236,1.5,3.4,24,0.00,,,0.00,WSDL version 423,2013-05-15 20:36:00,
2013-05-15 16:41:00,86.0,44.1,27.94,West,280,2.1,4.5,24,0.00,,,0.00,WSDL version 423,2013-05-15 20:41:00,
2013-05-15 16:46:00,84.7,42.9,27.94,North,349,2.0,4.9,23,0.00,,,0.00,WSDL version 423,2013-05-15 20:46:00,
2013-05-15 16:57:00,83.1,42.2,27.94,WSW,250,2.2,8.1,23,0.00,,,0.00,WSDL version 423,2013-05-15 20:57:00,
2013-05-15 17:02:00,82.7,41.2,27.94,North,5,1.6,8.1,23,0.00,,,0.00,WSDL version 423,2013-05-15 21:02:00,
2013-05-15 17:07:00,82.4,40.9,27.94,North,357,3.5,6.3,23,0.00,,,0.00,WSDL version 423,2013-05-15 21:07:00,
2013-05-15 17:12:00,82.3,40.2,27.94,WNW,290,2.0,6.3,22,0.00,,,0.00,WSDL version 423,2013-05-15 21:12:00,
2013-05-15 17:17:00,81.8,39.3,27.94,NW,308,1.3,4.9,22,0.00,,,0.00,WSDL version 423,2013-05-15 21:17:00,
2013-05-15 17:24:00,81.6,39.3,27.94,North,5,2.7,3.8,23,0.00,,,0.00,WSDL version 423,2013-05-15 21:24:00,
2013-05-15 17:31:00,81.3,40.2,27.94,NNW,340,2.1,5.6,24,0.00,,,0.00,WSDL version 423,2013-05-15 21:31:00,
2013-05-15 17:36:00,81.4,41.5,27.94,West,270,1.1,5.6,25,0.00,,,0.00,WSDL version 423,2013-05-15 21:36:00,
2013-05-15 17:41:00,81.3,42.2,27.94,West,275,2.3,5.6,25,0.00,,,0.00,WSDL version 423,2013-05-15 21:41:00,
2013-05-15 17:47:00,81.0,42.6,27.94,NNW,335,1.7,5.6,26,0.00,,,0.00,WSDL version 423,2013-05-15 21:47:00,
2013-05-15 17:52:00,81.0,43.4,27.94,WSW,253,2.9,4.7,26,0.00,,,0.00,WSDL version 423,2013-05-15 21:52:00,
2013-05-15 17:57:00,80.9,43.7,27.94,North,352,2.6,4.7,27,0.00,,,0.00,WSDL version 423,2013-05-15 21:57:00,
2013-05-15 18:02:00,80.7,44.0,27.94,SE,141,2.9,4.7,28,0.00,,,0.00,WSDL version 423,2013-05-15 22:02:00,
2013-05-15 18:07:00,80.3,45.0,27.91,WNW,285,2.1,4.9,30,0.00,,,0.00,WSDL version 423,2013-05-15 22:07:00,
2013-05-15 18:12:00,80.0,45.1,27.91,NW,309,2.0,4.9,29,0.00,,,0.00,WSDL version 423,2013-05-15 22:12:00,
2013-05-15 18:17:00,79.9,45.5,27.91,South,190,1.8,4.9,30,0.00,,,0.00,WSDL version 423,2013-05-15 22:17:00,
2013-05-15 18:30:00,79.6,45.5,27.91,NNW,340,1.7,6.0,30,0.00,,,0.00,WSDL version 423,2013-05-15 22:30:00,
2013-05-15 18:35:00,79.4,45.3,27.94,WNW,293,1.7,6.0,30,0.00,,,0.00,WSDL version 423,2013-05-15 22:35:00,
2013-05-15 18:40:00,79.3,45.2,27.94,NNW,338,2.7,4.0,30,0.00,,,0.00,WSDL version 423,2013-05-15 22:40:00,
2013-05-15 18:52:00,79.2,45.2,27.91,NNW,345,1.8,4.3,30,0.00,,,0.00,WSDL version 423,2013-05-15 22:52:00,
2013-05-15 18:57:00,79.0,44.9,27.91,South,186,1.6,6.0,30,0.00,,,0.00,WSDL version 423,2013-05-15 22:57:00,
2013-05-15 19:07:00,78.5,44.8,27.91,SSE,152,2.0,4.3,30,0.00,,,0.00,WSDL version 423,2013-05-15 23:07:00,
2013-05-15 19:12:00,78.2,44.7,27.91,SSE,160,2.4,4.3,31,0.00,,,0.00,WSDL version 423,2013-05-15 23:12:00,
2013-05-15 19:17:00,78.0,45.0,27.91,SSW,209,2.3,4.3,31,0.00,,,0.00,WSDL version 423,2013-05-15 23:17:00,
2013-05-15 19:24:00,77.6,44.6,27.91,South,191,3.3,7.6,31,0.00,,,0.00,WSDL version 423,2013-05-15 23:24:00,
2013-05-15 19:34:00,76.9,44.5,27.91,NW,309,1.2,3.4,32,0.00,,,0.00,WSDL version 423,2013-05-15 23:34:00,
2013-05-15 19:40:00,76.5,44.5,27.91,WSW,253,2.5,4.7,32,0.00,,,0.00,WSDL version 423,2013-05-15 23:40:00,
2013-05-15 19:45:00,76.2,44.2,27.91,WSW,248,2.1,4.9,32,0.00,,,0.00,WSDL version 423,2013-05-15 23:45:00,
2013-05-15 19:50:00,75.9,44.1,27.91,SSW,200,1.3,4.9,33,0.00,,,0.00,WSDL version 423,2013-05-15 23:50:00,
2013-05-15 19:55:00,75.5,44.4,27.91,WSW,256,1.9,5.6,33,0.00,,,0.00,WSDL version 423,2013-05-15 23:55:00,
2013-05-15 20:00:00,75.0,44.0,27.91,SW,219,1.5,5.6,33,0.00,,,0.00,WSDL version 423,2013-05-16 00:00:00,
2013-05-15 20:05:00,74.6,43.6,27.91,SSW,193,1.6,3.4,33,0.00,,,0.00,WSDL version 423,2013-05-16 00:05:00,
2013-05-15 20:10:00,74.2,43.4,27.91,SSE,160,0.7,3.4,34,0.00,,,0.00,WSDL version 423,2013-05-16 00:10:00,
2013-05-15 20:15:00,73.9,43.8,27.91,SSE,163,1.5,3.4,34,0.00,,,0.00,WSDL version 423,2013-05-16 00:15:00,
2013-05-15 20:20:00,73.4,43.4,27.91,South,177,0.1,3.4,34,0.00,,,0.00,WSDL version 423,2013-05-16 00:20:00,
2013-05-15 20:25:00,73.0,44.1,27.91,SE,141,0.0,1.6,36,0.00,,,0.00,WSDL version 423,2013-05-16 00:25:00,
2013-05-15 20:30:00,72.1,44.5,27.91,SSW,195,0.0,1.3,38,0.00,,,0.00,WSDL version 423,2013-05-16 00:30:00,
2013-05-15 20:35:00,71.1,45.6,27.91,NNW,338,0.0,1.3,41,0.00,,,0.00,WSDL version 423,2013-05-16 00:35:00,
2013-05-15 20:40:00,70.4,45.9,27.91,NNW,340,0.6,1.3,42,0.00,,,0.00,WSDL version 423,2013-05-16 00:40:00,
2013-05-15 20:47:00,69.6,45.8,27.91,East,83,1.2,2.0,42,0.00,,,0.00,WSDL version 423,2013-05-16 00:47:00,
2013-05-15 20:52:00,69.1,45.7,27.94,NE,56,0.0,2.0,43,0.00,,,0.00,WSDL version 423,2013-05-16 00:52:00,
2013-05-15 20:57:00,68.7,45.3,27.94,East,90,0.0,1.3,43,0.00,,,0.00,WSDL version 423,2013-05-16 00:57:00,
2013-05-15 21:02:00,68.3,45.6,27.94,East,90,0.0,0.0,44,0.00,,,0.00,WSDL version 423,2013-05-16 01:02:00,
2013-05-15 21:09:00,67.7,46.0,27.94,East,90,0.0,0.0,47,0.00,,,0.00,WSDL version 423,2013-05-16 01:09:00,
2013-05-15 21:14:00,67.1,46.3,27.94,ENE,68,0.0,0.0,47,0.00,,,0.00,WSDL version 423,2013-05-16 01:14:00,
2013-05-15 21:19:00,66.7,46.3,27.94,ENE,68,0.0,0.0,48,0.00,,,0.00,WSDL version 423,2013-05-16 01:19:00,
2013-05-15 21:26:00,66.1,46.5,27.94,East,90,0.0,0.0,50,0.00,,,0.00,WSDL version 423,2013-05-16 01:26:00,
2013-05-15 21:33:00,65.6,46.8,27.94,East,90,0.0,0.0,51,0.00,,,0.00,WSDL version 423,2013-05-16 01:33:00,
2013-05-15 21:40:00,64.9,46.5,27.94,ENE,70,0.0,0.0,52,0.00,,,0.00,WSDL version 423,2013-05-16 01:40:00,
2013-05-15 21:45:00,64.5,46.5,27.94,ENE,68,0.0,0.0,52,0.00,,,0.00,WSDL version 423,2013-05-16 01:45:00,
2013-05-15 21:50:00,64.1,47.1,27.94,ENE,68,0.0,0.0,54,0.00,,,0.00,WSDL version 423,2013-05-16 01:50:00,
2013-05-15 21:55:00,63.9,47.1,27.94,ESE,118,0.0,0.0,55,0.00,,,0.00,WSDL version 423,2013-05-16 01:55:00,
2013-05-15 22:00:00,63.6,47.4,27.94,ENE,68,0.0,0.0,55,0.00,,,0.00,WSDL version 423,2013-05-16 02:00:00,
2013-05-15 22:05:00,63.3,47.6,27.94,ENE,76,0.0,0.0,56,0.00,,,0.00,WSDL version 423,2013-05-16 02:05:00,
2013-05-15 22:10:00,63.0,47.2,27.94,ENE,68,0.0,0.0,56,0.00,,,0.00,WSDL version 423,2013-05-16 02:10:00,
2013-05-15 22:15:00,62.9,47.5,27.94,ENE,68,0.0,0.0,57,0.00,,,0.00,WSDL version 423,2013-05-16 02:15:00,
2013-05-15 22:20:00,62.6,47.7,27.96,SE,135,0.0,0.0,59,0.00,,,0.00,WSDL version 423,2013-05-16 02:20:00,
2013-05-15 22:27:00,62.1,47.9,27.96,SSE,158,0.0,0.0,60,0.00,,,0.00,WSDL version 423,2013-05-16 02:27:00,
2013-05-15 22:32:00,61.7,47.9,27.96,SSE,158,0.0,0.0,60,0.00,,,0.00,WSDL version 423,2013-05-16 02:32:00,
2013-05-15 22:37:00,61.5,47.7,27.96,ENE,68,0.0,0.0,61,0.00,,,0.00,WSDL version 423,2013-05-16 02:37:00,
2013-05-15 22:42:00,61.3,48.1,27.96,ENE,73,0.0,0.0,62,0.00,,,0.00,WSDL version 423,2013-05-16 02:42:00,
2013-05-15 22:50:00,60.8,48.3,27.96,ENE,68,0.0,0.0,64,0.00,,,0.00,WSDL version 423,2013-05-16 02:50:00,
2013-05-15 22:55:00,60.6,48.4,27.96,East,80,0.0,0.0,64,0.00,,,0.00,WSDL version 423,2013-05-16 02:55:00,
2013-05-15 23:05:00,60.3,48.4,27.96,NNE,23,0.0,0.0,65,0.00,,,0.00,WSDL version 423,2013-05-16 03:05:00,
2013-05-15 23:10:00,60.1,48.3,27.96,ENE,68,0.0,0.0,65,0.00,,,0.00,WSDL version 423,2013-05-16 03:10:00,
2013-05-15 23:21:00,59.8,48.2,27.96,East,83,0.0,0.0,66,0.00,,,0.00,WSDL version 423,2013-05-16 03:21:00,
2013-05-15 23:26:00,59.7,48.3,27.96,ESE,113,0.0,0.0,66,0.00,,,0.00,WSDL version 423,2013-05-16 03:26:00,
2013-05-15 23:31:00,59.7,48.7,27.96,ESE,113,0.0,0.0,67,0.00,,,0.00,WSDL version 423,2013-05-16 03:31:00,
2013-05-15 23:36:00,59.5,48.5,27.96,ENE,68,0.0,0.0,67,0.00,,,0.00,WSDL version 423,2013-05-16 03:36:00,
2013-05-15 23:41:00,59.2,48.1,27.96,ENE,68,0.0,0.0,67,0.00,,,0.00,WSDL version 423,2013-05-16 03:41:00,
2013-05-15 23:46:00,59.0,48.0,27.96,ENE,68,0.0,0.0,66,0.00,,,0.00,WSDL version 423,2013-05-16 03:46:00,
2013-05-15 23:51:00,58.9,48.1,27.96,ENE,68,0.0,0.0,68,0.00,,,0.00,WSDL version 423,2013-05-16 03:51:00,
2013-05-15 23:56:00,58.6,48.0,27.96,ENE,68,0.0,0.0,68,0.00,,,0.00,WSDL version 423,2013-05-16 03:56:00,